Showing default

ICEYE-X25, 56963

Orbit data source: Space-Track

ICEYE-X25, 56963 is a payload satellite owned by ICEYE (FI) in SSO that was launched on Mon, 12 Jun 2023 UTC via an FALCON 9 launch vehicle from the Air Force Western Test Range (AFWTR). Payload-class satellites include a variety of spacecraft equipped with specific instruments for various scientific and technological missions. These include communications satellites like Starlink; space stations such as the ISS; scientific satellites like the Hubble; Earth observation satellites from companies like Planet Labs, Umbra, and HawkEye 360; GPS; miniature CubeSats for education and research; and military/defense satellites.

Loading next visibility...
Identifier
56963, 2023-084AH
Orbit
SSO
Country
Flag of FIFI / FIN
Related business
Manufacturer
ICEYE
Mission
Operational Commercial Radar Imaging
Bus & Motor
ICEYE, Unknown motor
Mass
90 kg wet, 89 kg dry
Launch date (UTC)
2023-06-12 (2 years ago)
Launch vehicle
FALCON 9
Launch site
Air Force Western Test Range (AFWTR)
Object type
Payload
Rocket body
Debris
Shape & HBR
Box + 1 Pan, 1.6 m
Radar Cross Section
0.825 m², Medium (>0.1 m² and < 1m²)

Expand to show TLE details & history
Last TLE update: 20 hours ago

TLE from 20 hours ago
0 ICEYE-X25
1 56963U 23084AH  25261.31936330  .00023680  00000-0  67451-3 0  9995
2 56963  97.5725  29.4375 0007535 198.4399 161.6572 15.36072592125915
Epoch: 2025-09-18T07:39Z
TLE epoch observation values (Epoch: 2025-09-18T07:39:52.989Z)
Latitude
-0.00004°
Longitude
-83.01595°
Altitude
465.734 km
Speed
7.631 km/s
True Right ascension
01h 57m 45s
True Declination
0° 00' 00"
Sunlit
Object was in full shadow at epoch
Visualization orbit readout
Latitude
Unknown
Longitude
Unknown
Altitude
Unknown
Speed
Unknown
Apparent Right ascension
Unknown
Apparent Declination
Unknown
Sunlit
N/A
Visualization observer readout
Local Sidereal Time
20:09:53
Azimuth
Unknown
Elevation
Unknown
Doppler factor
Unknown
Orbital elements
Apogee altitude
459.837 km
Perigee altitude
449.54 km
Semi-major axis
6,832.825 km
Eccentricity
0.00075
Inclination
97.5725°
RAAN
29.4375°
Arg. of periapsis
198.4399°
True anomaly
161.68435°
Mean anomaly
161.6572°
Eccentric anomaly
161.67078°
Mean motion
3.84276 °/min
Orbital period
93.68 mins
BSTAR
0.00067451
Loading maneuver chart data...
Computing Atmospheric mass density...
Loading historical data...
Loading historical data...
Loading historical data...
Loading historical data...
Loading historical data...
Loading historical data...
Loading historical data...

Documentation

Showing up to 5 results
|